Precipitable_Water
0.49 0.35 0.31 0.30 0.32 0.36 0.40 0.42 0.42 0.42 0.41 0.40 0.40 0.39 0.37 0.36 0.36 0.40 0.42 0.49 0.56 0.49 0.45 0.46 0.47 0.47 0.46 0.50 0.55 0.62 0.67 0.65 0.63 0.62 0.60 0.59 0.59 0.59 0.57 0.55 0.57 0.57 0.59 0.70 0.77 0.83 0.85 0.86 0.88 0.90 0.89 0.86 0.87 0.90 0.93 0.91 0.89 0.89 0.89 0.90 0.88 0.93 0.95 0.94 0.94 0.93 0.91 0.87 0.87 0.89 0.88 0.87 0.89 0.89 0.93 0.90 0.87 0.84 0.84 0.83 0.76 0.72 0.74 0.76 0.78 0.79
0.47 0.34 0.30 0.33 0.35 0.36 0.37 0.41 0.42 0.41 0.41 0.39 0.38 0.37 0.36 0.38 0.34 0.40 0.41 0.48 0.54 0.45 0.41 0.48 0.46 0.45 0.47 0.50 0.54 0.61 0.62 0.57 0.59 0.60 0.60 0.57 0.58 0.57 0.56 0.53 0.54 0.56 0.62 0.65 0.68 0.76 0.82 0.84 0.87 0.89 0.88 0.87 0.82 0.89 0.92 0.89 0.87 0.88 0.89 0.88 0.88 0.91 0.92 0.92 0.92 0.92 0.90 0.89 0.87 0.85 0.85 0.87 0.87 0.86 0.87 0.86 0.86 0.84 0.85 0.83 0.78 0.73 0.73 0.74 0.75 0.77
0.32 0.28 0.29 0.34 0.38 0.39 0.38 0.38 0.39 0.37 0.36 0.38 0.37 0.37 0.36 0.37 0.40 0.42 0.44 0.48 0.51 0.47 0.39 0.45 0.43 0.43 0.47 0.49 0.53 0.56 0.57 0.59 0.63 0.64 0.62 0.60 0.58 0.57 0.56 0.56 0.55 0.56 0.54 0.57 0.60 0.68 0.75 0.81 0.84 0.87 0.88 0.88 0.87 0.89 0.91 0.91 0.88 0.88 0.87 0.88 0.87 0.89 0.89 0.90 0.91 0.91 0.87 0.90 0.92 0.91 0.89 0.88 0.86 0.92 0.93 0.93 0.92 0.88 0.85 0.83 0.81 0.78 0.74 0.74 0.73 0.75
0.25 0.27 0.30 0.33 0.36 0.35 0.34 0.35 0.34 0.34 0.36 0.36 0.36 0.33 0.32 0.37 0.36 0.33 0.41 0.47 0.48 0.45 0.39 0.42 0.41 0.43 0.47 0.49 0.50 0.56 0.58 0.59 0.64 0.66 0.66 0.65 0.59 0.57 0.56 0.57 0.56 0.54 0.53 0.53 0.57 0.61 0.68 0.76 0.80 0.82 0.84 0.87 0.88 0.88 0.91 0.92 0.88 0.88 0.88 0.88 0.87 0.87 0.89 0.89 0.91 0.91 0.92 0.93 0.95 0.95 0.93 0.94 0.91 0.88 0.95 0.92 0.91 0.86 0.83 0.80 0.83 0.81 0.78 0.75 0.73 0.73
0.25 0.28 0.32 0.32 0.32 0.33 0.29 0.30 0.29 0.29 0.28 0.34 0.35 0.34 0.33 0.34 0.36 0.38 0.39 0.45 0.47 0.47 0.48 0.44 0.40 0.40 0.42 0.40 0.42 0.49 0.58 0.58 0.60 0.63 0.64 0.65 0.63 0.63 0.62 0.60 0.60 0.57 0.57 0.56 0.57 0.59 0.62 0.68 0.74 0.77 0.81 0.87 0.85 0.87 0.90 0.91 0.90 0.90 0.90 0.90 0.89 0.87 0.87 0.89 0.92 0.93 0.93 0.94 0.92 0.92 0.94 0.95 0.92 0.92 0.91 0.85 0.82 0.82 0.82 0.81 0.80 0.79 0.81 0.78 0.75 0.74
0.27 0.31 0.33 0.29 0.28 0.29 0.27 0.26 0.28 0.29 0.26 0.29 0.35 0.35 0.34 0.36 0.36 0.39 0.42 0.40 0.37 0.36 0.43 0.41 0.30 0.28 0.36 0.37 0.39 0.44 0.47 0.48 0.56 0.56 0.56 0.59 0.60 0.61 0.58 0.57 0.60 0.62 0.63 0.61 0.59 0.61 0.62 0.64 0.72 0.77 0.79 0.80 0.84 0.87 0.91 0.94 0.93 0.92 0.92 0.92 0.92 0.91 0.91 0.89 0.90 0.93 0.91 0.90 0.86 0.83 0.80 0.78 0.79 0.77 0.80 0.75 0.75 0.77 0.77 0.76 0.81 0.81 0.81 0.80 0.79 0.76
0.27 0.29 0.28 0.27 0.27 0.26 0.25 0.25 0.29 0.32 0.28 0.27 0.31 0.36 0.37 0.36 0.36 0.37 0.38 0.37 0.30 0.28 0.38 0.46 0.30 0.24 0.33 0.32 0.37 0.40 0.41 0.43 0.50 0.51 0.52 0.56 0.56 0.56 0.56 0.57 0.58 0.59 0.61 0.63 0.63 0.63 0.61 0.62 0.67 0.74 0.77 0.80 0.82 0.87 0.94 0.95 0.93 0.94 0.94 0.94 0.94 0.93 0.93 0.93 0.92 0.93 0.91 0.87 0.86 0.83 0.80 0.79 0.77 0.74 0.80 0.88 0.88 0.84 0.83 0.84 0.83 0.84 0.82 0.80 0.79 0.78
0.24 0.23 0.25 0.28 0.27 0.26 0.26 0.25 0.26 0.28 0.27 0.26 0.30 0.30 0.34 0.34 0.34 0.35 0.37 0.36 0.33 0.40 0.43 0.44 0.39 0.28 0.27 0.32 0.40 0.40 0.37 0.38 0.41 0.45 0.48 0.51 0.53 0.53 0.54 0.56 0.58 0.61 0.62 0.61 0.62 0.63 0.64 0.63 0.64 0.69 0.77 0.82 0.84 0.89 0.92 0.92 0.94 0.93 0.95 0.95 0.95 0.96 0.95 0.95 0.95 0.92 0.92 0.87 0.86 0.84 0.83 0.83 0.80 0.79 0.80 0.88 0.90 0.91 0.89 0.85 0.85 0.86 0.84 0.80 0.80 0.78
0.22 0.21 0.24 0.25 0.26 0.26 0.25 0.27 0.29 0.29 0.25 0.25 0.28 0.30 0.31 0.32 0.32 0.34 0.35 0.35 0.36 0.35 0.30 0.38 0.42 0.31 0.28 0.36 0.44 0.41 0.34 0.34 0.35 0.40 0.44 0.47 0.49 0.50 0.52 0.55 0.59 0.62 0.64 0.65 0.63 0.63 0.64 0.62 0.65 0.71 0.76 0.83 0.87 0.89 0.89 0.90 0.94 0.97 0.98 0.99 0.99 0.98 0.98 0.97 0.97 0.94 0.93 0.91 0.88 0.86 0.86 0.82 0.85 0.86 0.86 0.92 0.94 0.91 0.90 0.84 0.85 0.85 0.84 0.82 0.79 0.79
0.21 0.23 0.23 0.25 0.25 0.24 0.27 0.29 0.30 0.29 0.25 0.26 0.30 0.33 0.33 0.33 0.34 0.35 0.34 0.35 0.35 0.32 0.25 0.32 0.39 0.28 0.27 0.35 0.39 0.41 0.36 0.34 0.35 0.40 0.43 0.45 0.47 0.48 0.49 0.53 0.59 0.63 0.65 0.67 0.67 0.67 0.67 0.67 0.67 0.75 0.81 0.83 0.86 0.89 0.91 0.93 0.95 0.96 0.97 0.96 0.96 0.96 1.00 1.00 0.97 0.96 0.94 0.93 0.92 0.87 0.86 0.83 0.83 0.86 0.88 0.90 0.88 0.88 0.89 0.82 0.81 0.83 0.84 0.84 0.80 0.78
0.21 0.24 0.25 0.25 0.24 0.26 0.28 0.30 0.31 0.32 0.31 0.31 0.31 0.30 0.31 0.32 0.33 0.35 0.36 0.36 0.33 0.26 0.27 0.33 0.37 0.33 0.25 0.32 0.35 0.34 0.32 0.37 0.40 0.43 0.46 0.47 0.47 0.48 0.50 0.52 0.56 0.59 0.63 0.65 0.67 0.68 0.68 0.71 0.69 0.74 0.75 0.81 0.86 0.88 0.89 0.90 0.92 0.94 0.94 0.94 0.92 0.95 0.99 1.01 0.99 0.98 0.95 0.95 0.93 0.88 0.87 0.86 0.84 0.85 0.85 0.84 0.84 0.87 0.86 0.82 0.81 0.81 0.83 0.85 0.83 0.81
0.19 0.22 0.24 0.26 0.30 0.29 0.29 0.30 0.33 0.35 0.35 0.33 0.30 0.29 0.29 0.29 0.33 0.31 0.31 0.33 0.25 0.23 0.28 0.35 0.37 0.37 0.24 0.28 0.38 0.41 0.43 0.45 0.43 0.41 0.43 0.45 0.46 0.46 0.47 0.51 0.56 0.59 0.62 0.65 0.66 0.66 0.67 0.66 0.66 0.71 0.72 0.77 0.81 0.83 0.84 0.85 0.88 0.90 0.92 0.92 0.89 0.92 0.95 0.99 1.01 0.99 0.97 0.97 0.95 0.93 0.90 0.87 0.88 0.87 0.85 0.83 0.81 0.85 0.83 0.84 0.81 0.83 0.82 0.83 0.84 0.82
0.20 0.23 0.26 0.27 0.32 0.29 0.26 0.26 0.29 0.31 0.32 0.30 0.29 0.28 0.24 0.22 0.23 0.21 0.24 0.21 0.22 0.20 0.27 0.35 0.38 0.32 0.30 0.33 0.38 0.40 0.42 0.46 0.48 0.47 0.46 0.46 0.46 0.47 0.47 0.50 0.55 0.59 0.61 0.63 0.64 0.65 0.64 0.61 0.60 0.63 0.68 0.73 0.74 0.75 0.77 0.80 0.84 0.88 0.90 0.90 0.87 0.88 0.93 0.95 1.00 0.99 0.99 0.98 0.96 0.94 0.93 0.91 0.91 0.90 0.89 0.87 0.85 0.87 0.85 0.86 0.84 0.82 0.80 0.82 0.81 0.81
0.19 0.24 0.25 0.27 0.29 0.28 0.24 0.22 0.24 0.24 0.27 0.26 0.24 0.24 0.20 0.18 0.17 0.16 0.19 0.20 0.20 0.25 0.32 0.33 0.37 0.29 0.34 0.37 0.41 0.40 0.43 0.46 0.48 0.50 0.49 0.47 0.46 0.46 0.46 0.48 0.53 0.58 0.60 0.62 0.64 0.65 0.63 0.61 0.60 0.63 0.64 0.66 0.68 0.69 0.72 0.76 0.80 0.85 0.87 0.89 0.87 0.86 0.92 0.95 0.97 0.98 0.98 0.99 0.99 0.98 0.95 0.94 0.94 0.91 0.92 0.92 0.90 0.91 0.91 0.90 0.87 0.85 0.83 0.81 0.82 0.82
0.19 0.16 0.23 0.26 0.23 0.25 0.24 0.24 0.27 0.26 0.26 0.26 0.26 0.24 0.22 0.19 0.16 0.14 0.16 0.15 0.17 0.20 0.25 0.34 0.27 0.24 0.23 0.30 0.42 0.43 0.46 0.48 0.49 0.50 0.50 0.48 0.48 0.48 0.48 0.49 0.51 0.55 0.58 0.62 0.63 0.63 0.61 0.60 0.61 0.60 0.62 0.63 0.65 0.68 0.70 0.73 0.75 0.79 0.82 0.85 0.86 0.86 0.91 0.93 0.94 0.96 0.96 0.97 0.99 0.99 0.99 0.97 0.96 0.94 0.93 0.94 0.95 0.94 0.93 0.95 0.92 0.89 0.88 0.85 0.86 0.86
0.23 0.23 0.28 0.31 0.27 0.25 0.21 0.25 0.28 0.27 0.26 0.29 0.28 0.28 0.23 0.20 0.24 0.17 0.20 0.19 0.19 0.20 0.21 0.25 0.24 0.29 0.29 0.39 0.43 0.46 0.47 0.47 0.49 0.49 0.49 0.47 0.49 0.49 0.46 0.46 0.48 0.51 0.55 0.58 0.59 0.61 0.61 0.60 0.61 0.58 0.60 0.63 0.66 0.70 0.73 0.75 0.77 0.75 0.75 0.80 0.84 0.85 0.89 0.91 0.92 0.92 0.94 0.96 0.98 0.98 0.97 0.98 0.98 0.97 0.95 0.93 0.95 0.95 0.97 0.97 0.97 0.95 0.93 0.91 0.91 0.93
0.24 0.22 0.31 0.30 0.30 0.25 0.23 0.25 0.28 0.30 0.21 0.26 0.26 0.21 0.25 0.29 0.27 0.23 0.24 0.25 0.24 0.22 0.19 0.27 0.25 0.29 0.36 0.36 0.39 0.42 0.43 0.44 0.45 0.46 0.47 0.46 0.48 0.48 0.45 0.46 0.48 0.50 0.53 0.53 0.54 0.56 0.58 0.58 0.60 0.59 0.60 0.62 0.65 0.67 0.70 0.73 0.76 0.77 0.77 0.77 0.77 0.80 0.84 0.86 0.87 0.87 0.89 0.92 0.94 0.95 0.96 0.96 0.96 0.95 0.92 0.92 0.94 0.97 0.99 0.99 0.99 0.99 1.01 0.99 0.95 0.95
0.21 0.24 0.29 0.28 0.26 0.29 0.31 0.28 0.34 0.36 0.32 0.28 0.20 0.25 0.31 0.33 0.31 0.23 0.17 0.19 0.18 0.15 0.18 0.23 0.21 0.23 0.24 0.21 0.35 0.38 0.37 0.39 0.41 0.42 0.44 0.46 0.47 0.45 0.45 0.48 0.49 0.50 0.52 0.53 0.54 0.56 0.57 0.56 0.59 0.60 0.61 0.63 0.64 0.67 0.69 0.71 0.76 0.78 0.77 0.76 0.74 0.74 0.75 0.80 0.84 0.85 0.86 0.87 0.88 0.90 0.91 0.93 0.95 0.95 0.95 0.95 0.93 0.97 0.98 0.99 0.99 1.00 0.99 0.99 1.02 1.03
0.26 0.19 0.25 0.29 0.29 0.31 0.34 0.33 0.30 0.35 0.38 0.30 0.25 0.35 0.26 0.22 0.19 0.25 0.19 0.14 0.14 0.14 0.15 0.18 0.21 0.21 0.24 0.24 0.30 0.32 0.33 0.35 0.38 0.42 0.43 0.43 0.44 0.44 0.45 0.49 0.52 0.54 0.52 0.51 0.51 0.52 0.54 0.53 0.56 0.60 0.61 0.62 0.64 0.67 0.69 0.72 0.74 0.76 0.76 0.76 0.75 0.71 0.75 0.79 0.84 0.86 0.90 0.93 0.91 0.91 0.91 0.90 0.91 0.93 0.93 0.94 0.95 0.95 0.94 0.94 0.96 0.96 0.96 1.00 1.03 1.07
0.29 0.19 0.23 0.31 0.29 0.33 0.33 0.34 0.27 0.30 0.34 0.38 0.37 0.33 0.36 0.27 0.24 0.21 0.22 0.20 0.18 0.15 0.14 0.15 0.18 0.16 0.24 0.27 0.30 0.31 0.33 0.35 0.38 0.40 0.41 0.43 0.43 0.45 0.46 0.50 0.53 0.54 0.52 0.51 0.52 0.51 0.54 0.53 0.55 0.62 0.63 0.59 0.60 0.63 0.67 0.70 0.72 0.71 0.74 0.76 0.75 0.76 0.76 0.78 0.80 0.85 0.85 0.90 0.91 0.91 0.93 0.92 0.91 0.92 0.92 0.92 0.91 0.89 0.88 0.89 0.91 0.94 0.95 0.97 1.03 1.09
0.24 0.28 0.18 0.27 0.33 0.31 0.26 0.31 0.28 0.29 0.24 0.25 0.26 0.25 0.27 0.27 0.33 0.28 0.28 0.22 0.19 0.16 0.15 0.14 0.13 0.17 0.25 0.32 0.32 0.32 0.34 0.37 0.39 0.40 0.42 0.44 0.45 0.46 0.47 0.51 0.53 0.55 0.56 0.53 0.51 0.51 0.52 0.53 0.53 0.59 0.62 0.61 0.62 0.63 0.65 0.66 0.67 0.69 0.73 0.74 0.75 0.73 0.74 0.74 0.77 0.79 0.80 0.84 0.86 0.86 0.85 0.85 0.86 0.85 0.87 0.86 0.87 0.84 0.84 0.86 0.88 0.90 0.93 0.98 0.99 1.04
0.19 0.23 0.20 0.25 0.26 0.25 0.28 0.35 0.34 0.33 0.29 0.26 0.22 0.20 0.21 0.19 0.17 0.15 0.17 0.24 0.22 0.17 0.15 0.13 0.11 0.16 0.27 0.36 0.34 0.34 0.36 0.38 0.41 0.42 0.42 0.44 0.46 0.47 0.48 0.52 0.55 0.55 0.56 0.56 0.53 0.52 0.52 0.54 0.55 0.57 0.57 0.58 0.58 0.58 0.60 0.65 0.68 0.70 0.72 0.74 0.76 0.77 0.75 0.74 0.74 0.76 0.78 0.81 0.83 0.83 0.84 0.84 0.85 0.85 0.86 0.85 0.86 0.84 0.84 0.85 0.87 0.90 0.92 0.91 0.96 1.00
0.24 0.24 0.23 0.22 0.25 0.27 0.30 0.34 0.42 0.40 0.35 0.29 0.25 0.21 0.23 0.19 0.20 0.18 0.12 0.14 0.21 0.21 0.19 0.17 0.13 0.15 0.30 0.36 0.37 0.38 0.39 0.41 0.42 0.43 0.42 0.44 0.47 0.48 0.49 0.53 0.56 0.58 0.58 0.57 0.55 0.53 0.54 0.57 0.57 0.57 0.56 0.55 0.55 0.56 0.59 0.63 0.65 0.68 0.71 0.74 0.77 0.77 0.76 0.77 0.76 0.78 0.79 0.79 0.80 0.81 0.84 0.85 0.84 0.85 0.84 0.84 0.84 0.84 0.84 0.85 0.86 0.89 0.88 0.90 0.92 0.97
0.30 0.21 0.21 0.24 0.31 0.35 0.38 0.42 0.43 0.42 0.39 0.35 0.33 0.35 0.30 0.23 0.24 0.22 0.19 0.19 0.16 0.18 0.16 0.17 0.13 0.16 0.29 0.39 0.40 0.40 0.41 0.43 0.45 0.44 0.43 0.45 0.47 0.49 0.50 0.53 0.55 0.58 0.60 0.60 0.57 0.55 0.57 0.59 0.59 0.57 0.57 0.57 0.57 0.58 0.60 0.62 0.65 0.67 0.70 0.72 0.75 0.76 0.77 0.78 0.79 0.79 0.80 0.81 0.80 0.82 0.83 0.82 0.83 0.83 0.84 0.83 0.85 0.85 0.85 0.87 0.87 0.88 0.87 0.87 0.91 0.91
0.20 0.24 0.21 0.21 0.22 0.27 0.31 0.35 0.35 0.41 0.39 0.36 0.35 0.38 0.40 0.36 0.33 0.29 0.25 0.26 0.17 0.18 0.18 0.15 0.11 0.16 0.31 0.39 0.41 0.40 0.40 0.40 0.41 0.44 0.45 0.44 0.47 0.49 0.51 0.54 0.57 0.59 0.61 0.60 0.57 0.54 0.56 0.58 0.58 0.58 0.59 0.59 0.60 0.61 0.61 0.63 0.64 0.65 0.66 0.69 0.71 0.73 0.77 0.78 0.80 0.80 0.80 0.81 0.80 0.80 0.80 0.79 0.80 0.80 0.81 0.81 0.83 0.82 0.83 0.83 0.84 0.87 0.86 0.86 0.87 0.89
0.22 0.25 0.22 0.16 0.15 0.14 0.14 0.15 0.18 0.22 0.30 0.38 0.43 0.39 0.39 0.34 0.30 0.26 0.20 0.19 0.13 0.17 0.20 0.16 0.15 0.23 0.32 0.39 0.40 0.42 0.42 0.41 0.43 0.43 0.45 0.47 0.46 0.48 0.52 0.54 0.56 0.58 0.59 0.60 0.58 0.56 0.53 0.56 0.59 0.59 0.59 0.60 0.61 0.62 0.61 0.62 0.64 0.65 0.65 0.66 0.70 0.71 0.73 0.76 0.79 0.79 0.79 0.80 0.79 0.78 0.76 0.77 0.79 0.80 0.80 0.81 0.82 0.81 0.82 0.82 0.82 0.83 0.84 0.85 0.83 0.86
0.23 0.26 0.24 0.22 0.19 0.18 0.21 0.25 0.32 0.33 0.32 0.27 0.31 0.32 0.33 0.34 0.33 0.28 0.24 0.18 0.15 0.17 0.16 0.19 0.19 0.21 0.27 0.33 0.35 0.39 0.40 0.37 0.36 0.39 0.40 0.44 0.46 0.51 0.54 0.54 0.56 0.58 0.59 0.60 0.59 0.56 0.55 0.55 0.56 0.58 0.60 0.62 0.62 0.64 0.64 0.62 0.63 0.64 0.65 0.64 0.66 0.69 0.71 0.73 0.75 0.76 0.75 0.77 0.78 0.77 0.75 0.76 0.78 0.81 0.82 0.82 0.81 0.80 0.81 0.83 0.84 0.85 0.84 0.86 0.85 0.85
0.24 0.20 0.24 0.24 0.24 0.25 0.28 0.28 0.32 0.33 0.28 0.29 0.28 0.27 0.31 0.30 0.30 0.27 0.22 0.20 0.25 0.21 0.16 0.24 0.26 0.22 0.24 0.31 0.34 0.38 0.40 0.37 0.37 0.36 0.40 0.41 0.44 0.49 0.53 0.55 0.57 0.58 0.59 0.60 0.59 0.55 0.51 0.52 0.55 0.58 0.60 0.62 0.64 0.65 0.66 0.64 0.63 0.62 0.64 0.63 0.65 0.67 0.69 0.72 0.74 0.74 0.74 0.76 0.76 0.76 0.76 0.75 0.78 0.81 0.84 0.84 0.82 0.79 0.80 0.84 0.87 0.88 0.87 0.88 0.87 0.85
0.20 0.17 0.26 0.24 0.24 0.28 0.31 0.31 0.33 0.32 0.30 0.29 0.28 0.26 0.25 0.28 0.29 0.27 0.27 0.29 0.28 0.23 0.20 0.26 0.29 0.26 0.29 0.32 0.35 0.35 0.36 0.33 0.35 0.39 0.42 0.45 0.47 0.52 0.54 0.54 0.55 0.55 0.56 0.56 0.56 0.56 0.53 0.52 0.54 0.58 0.60 0.62 0.63 0.64 0.66 0.65 0.64 0.64 0.65 0.67 0.66 0.67 0.69 0.72 0.73 0.73 0.73 0.75 0.74 0.75 0.77 0.78 0.80 0.83 0.83 0.82 0.78 0.77 0.78 0.81 0.86 0.89 0.90 0.89 0.86 0.87
0.23 0.20 0.25 0.26 0.24 0.26 0.28 0.28 0.31 0.27 0.27 0.26 0.25 0.24 0.27 0.28 0.28 0.30 0.31 0.32 0.30 0.29 0.31 0.32 0.32 0.30 0.34 0.37 0.36 0.35 0.38 0.40 0.44 0.46 0.47 0.46 0.48 0.52 0.53 0.53 0.54 0.54 0.53 0.54 0.54 0.55 0.55 0.55 0.57 0.59 0.61 0.62 0.63 0.63 0.64 0.63 0.62 0.64 0.64 0.65 0.66 0.66 0.69 0.71 0.71 0.71 0.73 0.73 0.74 0.76 0.78 0.79 0.80 0.82 0.83 0.81 0.77 0.76 0.77 0.79 0.83 0.86 0.89 0.89 0.87 0.86
0.23 0.22 0.27 0.25 0.21 0.23 0.27 0.28 0.29 0.28 0.26 0.23 0.27 0.28 0.28 0.29 0.30 0.32 0.33 0.34 0.35 0.33 0.34 0.35 0.33 0.30 0.39 0.41 0.39 0.43 0.45 0.47 0.46 0.44 0.45 0.48 0.49 0.50 0.51 0.51 0.52 0.52 0.51 0.52 0.53 0.54 0.56 0.57 0.59 0.61 0.62 0.63 0.64 0.63 0.63 0.62 0.61 0.64 0.65 0.66 0.67 0.67 0.70 0.72 0.71 0.72 0.72 0.72 0.76 0.78 0.80 0.80 0.80 0.81 0.80 0.80 0.79 0.80 0.80 0.81 0.83 0.85 0.87 0.88 0.88 0.87
0.29 0.25 0.31 0.29 0.21 0.20 0.26 0.27 0.28 0.28 0.27 0.24 0.25 0.27 0.29 0.29 0.27 0.30 0.30 0.35 0.31 0.30 0.33 0.34 0.31 0.31 0.37 0.39 0.41 0.43 0.45 0.45 0.44 0.45 0.46 0.49 0.52 0.52 0.51 0.52 0.52 0.50 0.48 0.49 0.50 0.53 0.54 0.56 0.58 0.61 0.62 0.63 0.63 0.63 0.62 0.61 0.60 0.63 0.63 0.65 0.67 0.69 0.73 0.73 0.73 0.72 0.73 0.75 0.77 0.79 0.80 0.80 0.81 0.81 0.80 0.81 0.80 0.80 0.82 0.83 0.84 0.85 0.86 0.87 0.88 0.90
0.32 0.29 0.26 0.26 0.21 0.20 0.27 0.28 0.26 0.25 0.23 0.19 0.21 0.27 0.32 0.34 0.33 0.35 0.36 0.37 0.37 0.38 0.32 0.29 0.29 0.36 0.37 0.41 0.38 0.42 0.45 0.45 0.47 0.49 0.48 0.50 0.52 0.53 0.52 0.51 0.51 0.48 0.47 0.47 0.48 0.50 0.53 0.56 0.58 0.60 0.61 0.61 0.60 0.57 0.58 0.60 0.61 0.61 0.62 0.64 0.67 0.71 0.71 0.71 0.72 0.74 0.75 0.77 0.78 0.79 0.80 0.81 0.81 0.80 0.80 0.80 0.80 0.81 0.82 0.83 0.84 0.85 0.86 0.85 0.88 0.90
0.35 0.32 0.29 0.32 0.22 0.23 0.28 0.28 0.28 0.22 0.14 0.15 0.28 0.34 0.35 0.32 0.34 0.32 0.32 0.35 0.39 0.40 0.36 0.38 0.38 0.41 0.41 0.41 0.39 0.42 0.44 0.45 0.48 0.52 0.54 0.53 0.53 0.52 0.53 0.53 0.52 0.49 0.48 0.48 0.50 0.51 0.54 0.56 0.57 0.58 0.58 0.58 0.57 0.56 0.58 0.60 0.61 0.63 0.65 0.66 0.69 0.69 0.71 0.72 0.75 0.78 0.79 0.80 0.80 0.80 0.81 0.82 0.81 0.80 0.80 0.80 0.80 0.81 0.81 0.81 0.81 0.83 0.86 0.87 0.90 0.89
0.33 0.33 0.31 0.34 0.26 0.25 0.30 0.30 0.23 0.16 0.18 0.29 0.36 0.39 0.40 0.39 0.38 0.35 0.36 0.39 0.41 0.43 0.42 0.40 0.41 0.41 0.42 0.43 0.43 0.45 0.49 0.52 0.55 0.53 0.52 0.56 0.56 0.53 0.53 0.52 0.51 0.50 0.47 0.47 0.49 0.52 0.54 0.56 0.56 0.57 0.58 0.59 0.59 0.58 0.57 0.58 0.60 0.62 0.65 0.68 0.69 0.72 0.73 0.76 0.78 0.81 0.83 0.83 0.83 0.85 0.86 0.85 0.84 0.83 0.82 0.82 0.81 0.80 0.80 0.80 0.81 0.82 0.84 0.86 0.86 0.86
0.34 0.32 0.34 0.32 0.32 0.32 0.27 0.26 0.17 0.18 0.30 0.36 0.38 0.41 0.46 0.43 0.41 0.37 0.33 0.37 0.41 0.42 0.43 0.40 0.42 0.43 0.44 0.46 0.47 0.50 0.54 0.55 0.54 0.54 0.55 0.58 0.59 0.57 0.55 0.52 0.52 0.51 0.49 0.51 0.52 0.54 0.56 0.58 0.59 0.59 0.60 0.64 0.64 0.65 0.67 0.66 0.69 0.69 0.69 0.72 0.72 0.74 0.77 0.79 0.79 0.80 0.83 0.83 0.85 0.86 0.87 0.87 0.86 0.86 0.86 0.85 0.84 0.82 0.80 0.80 0.81 0.82 0.85 0.86 0.87 0.88
0.39 0.38 0.35 0.30 0.36 0.25 0.27 0.26 0.24 0.32 0.30 0.33 0.33 0.37 0.38 0.33 0.36 0.34 0.27 0.34 0.41 0.44 0.44 0.42 0.43 0.43 0.45 0.47 0.49 0.52 0.55 0.55 0.50 0.50 0.57 0.58 0.59 0.60 0.57 0.54 0.54 0.54 0.55 0.57 0.58 0.58 0.61 0.62 0.63 0.65 0.66 0.65 0.65 0.65 0.66 0.69 0.70 0.70 0.69 0.69 0.74 0.78 0.80 0.82 0.81 0.80 0.81 0.82 0.83 0.86 0.87 0.88 0.87 0.87 0.87 0.87 0.85 0.84 0.82 0.81 0.81 0.83 0.87 0.86 0.87 0.86
0.46 0.36 0.40 0.32 0.32 0.34 0.28 0.25 0.26 0.24 0.19 0.26 0.35 0.40 0.44 0.45 0.43 0.43 0.36 0.33 0.42 0.44 0.47 0.45 0.43 0.44 0.45 0.47 0.49 0.52 0.54 0.48 0.43 0.47 0.56 0.61 0.62 0.60 0.61 0.60 0.60 0.60 0.61 0.62 0.64 0.64 0.64 0.64 0.66 0.69 0.69 0.67 0.67 0.68 0.69 0.70 0.70 0.69 0.68 0.69 0.73 0.76 0.77 0.79 0.79 0.81 0.83 0.83 0.84 0.85 0.87 0.89 0.89 0.88 0.88 0.88 0.86 0.85 0.85 0.85 0.85 0.84 0.87 0.85 0.84 0.85
0.46 0.45 0.42 0.35 0.31 0.31 0.28 0.23 0.22 0.19 0.22 0.31 0.34 0.40 0.46 0.48 0.47 0.46 0.35 0.28 0.40 0.44 0.48 0.46 0.45 0.46 0.47 0.47 0.49 0.52 0.47 0.41 0.42 0.48 0.59 0.62 0.63 0.64 0.62 0.63 0.63 0.64 0.66 0.68 0.68 0.68 0.69 0.70 0.71 0.73 0.73 0.72 0.69 0.72 0.73 0.73 0.72 0.71 0.70 0.72 0.73 0.76 0.76 0.77 0.79 0.81 0.82 0.84 0.86 0.87 0.88 0.89 0.90 0.90 0.90 0.89 0.90 0.89 0.86 0.85 0.84 0.84 0.85 0.85 0.86 0.85
0.40 0.40 0.39 0.33 0.29 0.29 0.27 0.24 0.20 0.24 0.24 0.34 0.39 0.42 0.47 0.52 0.50 0.41 0.26 0.26 0.40 0.46 0.49 0.49 0.47 0.47 0.49 0.50 0.50 0.48 0.44 0.40 0.43 0.51 0.62 0.64 0.66 0.66 0.65 0.64 0.65 0.66 0.68 0.72 0.74 0.76 0.76 0.78 0.77 0.75 0.75 0.74 0.75 0.79 0.79 0.80 0.78 0.76 0.76 0.77 0.78 0.77 0.77 0.79 0.81 0.84 0.87 0.88 0.90 0.92 0.92 0.92 0.92 0.91 0.91 0.91 0.92 0.93 0.91 0.89 0.86 0.84 0.83 0.82 0.84 0.84
0.34 0.35 0.35 0.29 0.29 0.29 0.27 0.26 0.28 0.28 0.35 0.40 0.42 0.46 0.49 0.52 0.44 0.30 0.24 0.34 0.46 0.48 0.50 0.50 0.49 0.50 0.51 0.50 0.51 0.46 0.50 0.52 0.55 0.62 0.67 0.69 0.66 0.66 0.69 0.70 0.71 0.72 0.72 0.73 0.75 0.79 0.78 0.79 0.78 0.77 0.77 0.78 0.80 0.82 0.83 0.83 0.81 0.79 0.80 0.81 0.81 0.80 0.82 0.85 0.87 0.88 0.88 0.89 0.89 0.89 0.91 0.93 0.95 0.94 0.94 0.95 0.94 0.93 0.91 0.90 0.87 0.87 0.85 0.82 0.81 0.81
0.33 0.34 0.35 0.34 0.28 0.26 0.28 0.26 0.25 0.29 0.37 0.43 0.48 0.49 0.52 0.43 0.31 0.28 0.42 0.51 0.49 0.49 0.52 0.53 0.51 0.53 0.54 0.52 0.53 0.53 0.56 0.62 0.66 0.68 0.67 0.67 0.65 0.66 0.68 0.70 0.71 0.74 0.77 0.79 0.80 0.80 0.80 0.79 0.77 0.76 0.76 0.77 0.78 0.79 0.79 0.78 0.75 0.75 0.75 0.74 0.73 0.77 0.82 0.83 0.83 0.84 0.84 0.83 0.83 0.83 0.84 0.87 0.92 0.95 0.95 0.97 0.96 0.92 0.88 0.88 0.86 0.83 0.81 0.80 0.78 0.77
0.34 0.31 0.29 0.28 0.31 0.31 0.29 0.26 0.26 0.22 0.35 0.46 0.51 0.48 0.52 0.37 0.39 0.48 0.50 0.52 0.54 0.53 0.53 0.54 0.55 0.55 0.56 0.55 0.58 0.61 0.62 0.65 0.67 0.68 0.68 0.69 0.67 0.66 0.68 0.70 0.71 0.72 0.74 0.76 0.79 0.81 0.79 0.76 0.75 0.74 0.75 0.76 0.77 0.77 0.77 0.75 0.72 0.72 0.73 0.72 0.73 0.77 0.79 0.80 0.82 0.81 0.81 0.79 0.78 0.78 0.79 0.81 0.86 0.92 0.96 0.96 0.98 0.95 0.91 0.90 0.87 0.85 0.83 0.80 0.79 0.78
0.43 0.31 0.30 0.31 0.33 0.25 0.26 0.24 0.25 0.34 0.44 0.52 0.49 0.41 0.48 0.50 0.54 0.55 0.53 0.50 0.56 0.57 0.56 0.56 0.57 0.58 0.59 0.58 0.60 0.63 0.66 0.66 0.68 0.69 0.70 0.70 0.69 0.68 0.69 0.72 0.74 0.75 0.77 0.79 0.79 0.79 0.79 0.78 0.78 0.78 0.79 0.79 0.78 0.77 0.77 0.74 0.71 0.71 0.70 0.69 0.75 0.76 0.77 0.77 0.77 0.79 0.79 0.77 0.76 0.74 0.72 0.75 0.82 0.90 0.94 0.95 0.95 0.95 0.93 0.91 0.91 0.90 0.87 0.85 0.82 0.80
0.42 0.36 0.37 0.31 0.39 0.32 0.29 0.33 0.42 0.49 0.54 0.57 0.55 0.55 0.57 0.62 0.63 0.61 0.60 0.57 0.56 0.59 0.64 0.60 0.59 0.62 0.63 0.64 0.65 0.65 0.65 0.69 0.69 0.71 0.70 0.70 0.70 0.68 0.68 0.70 0.72 0.73 0.74 0.74 0.76 0.78 0.79 0.78 0.78 0.77 0.76 0.75 0.74 0.74 0.74 0.74 0.71 0.70 0.68 0.72 0.75 0.74 0.73 0.72 0.72 0.74 0.76 0.78 0.80 0.80 0.75 0.70 0.71 0.80 0.88 0.92 0.94 0.94 0.95 0.94 0.93 0.88 0.88 0.87 0.84 0.83
0.52 0.49 0.51 0.43 0.39 0.45 0.47 0.47 0.52 0.54 0.56 0.58 0.62 0.62 0.60 0.62 0.65 0.63 0.61 0.60 0.62 0.63 0.64 0.61 0.63 0.64 0.66 0.69 0.66 0.67 0.68 0.70 0.70 0.71 0.71 0.71 0.71 0.71 0.72 0.72 0.73 0.74 0.75 0.76 0.77 0.79 0.79 0.79 0.76 0.72 0.69 0.69 0.70 0.72 0.74 0.74 0.73 0.69 0.72 0.76 0.77 0.77 0.75 0.71 0.65 0.62 0.63 0.73 0.79 0.81 0.79 0.72 0.71 0.77 0.84 0.87 0.90 0.92 0.94 0.94 0.92 0.88 0.86 0.85 0.82 0.82
0.53 0.56 0.50 0.42 0.48 0.40 0.35 0.50 0.50 0.51 0.56 0.59 0.61 0.65 0.67 0.67 0.66 0.66 0.64 0.65 0.65 0.66 0.67 0.69 0.68 0.69 0.70 0.72 0.70 0.69 0.71 0.73 0.72 0.72 0.72 0.72 0.71 0.72 0.72 0.72 0.73 0.74 0.75 0.76 0.80 0.80 0.77 0.73 0.69 0.66 0.65 0.64 0.68 0.70 0.71 0.72 0.73 0.74 0.76 0.77 0.78 0.77 0.75 0.70 0.65 0.60 0.61 0.65 0.73 0.77 0.78 0.73 0.69 0.70 0.75 0.80 0.83 0.86 0.88 0.88 0.89 0.88 0.86 0.85 0.83 0.82
0.48 0.64 0.51 0.52 0.50 0.44 0.44 0.54 0.59 0.62 0.64 0.65 0.65 0.64 0.64 0.67 0.69 0.70 0.69 0.69 0.70 0.72 0.72 0.73 0.74 0.73 0.76 0.75 0.77 0.75 0.74 0.75 0.73 0.72 0.73 0.73 0.74 0.74 0.73 0.73 0.75 0.80 0.82 0.82 0.79 0.76 0.71 0.67 0.64 0.63 0.63 0.63 0.67 0.69 0.70 0.71 0.72 0.76 0.78 0.79 0.78 0.76 0.72 0.69 0.67 0.67 0.66 0.67 0.70 0.72 0.75 0.74 0.72 0.69 0.68 0.72 0.75 0.75 0.76 0.78 0.79 0.77 0.76 0.76 0.79 0.80
0.61 0.64 0.48 0.55 0.50 0.55 0.59 0.61 0.63 0.63 0.64 0.65 0.69 0.71 0.72 0.71 0.70 0.70 0.72 0.72 0.73 0.73 0.74 0.76 0.77 0.77 0.79 0.79 0.80 0.77 0.76 0.78 0.79 0.79 0.78 0.77 0.75 0.74 0.76 0.79 0.81 0.80 0.77 0.74 0.73 0.71 0.66 0.65 0.64 0.65 0.66 0.67 0.71 0.73 0.73 0.74 0.76 0.79 0.79 0.78 0.77 0.76 0.71 0.68 0.69 0.70 0.71 0.73 0.73 0.72 0.74 0.76 0.77 0.75 0.73 0.73 0.75 0.75 0.76 0.74 0.73 0.73 0.73 0.73 0.73 0.73
0.59 0.52 0.60 0.57 0.49 0.48 0.50 0.55 0.62 0.52 0.52 0.60 0.64 0.69 0.72 0.76 0.76 0.74 0.74 0.74 0.74 0.74 0.75 0.75 0.76 0.79 0.79 0.79 0.80 0.81 0.79 0.79 0.80 0.79 0.76 0.76 0.77 0.78 0.78 0.76 0.74 0.72 0.71 0.71 0.69 0.68 0.67 0.68 0.69 0.69 0.70 0.72 0.74 0.74 0.75 0.76 0.78 0.79 0.78 0.78 0.76 0.73 0.68 0.69 0.70 0.71 0.72 0.75 0.76 0.77 0.77 0.77 0.78 0.79 0.79 0.77 0.76 0.76 0.77 0.80 0.80 0.80 0.78 0.77 0.79 0.80
0.57 0.59 0.58 0.52 0.49 0.49 0.58 0.62 0.64 0.62 0.61 0.63 0.67 0.70 0.74 0.78 0.77 0.74 0.73 0.73 0.75 0.77 0.77 0.76 0.75 0.76 0.78 0.81 0.82 0.79 0.76 0.75 0.76 0.78 0.77 0.77 0.74 0.72 0.71 0.70 0.69 0.68 0.68 0.68 0.67 0.67 0.68 0.70 0.72 0.73 0.73 0.74 0.74 0.74 0.73 0.72 0.72 0.73 0.74 0.75 0.73 0.71 0.70 0.70 0.70 0.71 0.73 0.74 0.75 0.77 0.78 0.78 0.78 0.79 0.78 0.77 0.76 0.76 0.75 0.77 0.84 0.90 0.93 0.93 0.92 0.92
Wind_Speed
8 8 7 7 7 6 7 8 8 8 9 8 8 7 7 6 5 5 5 5 7 7 5 6 7 6 6 7 6 7 6 6 5 6 6 6 6 6 6 6 6 6 6 7 7 7 7 6 6 7 7 8 8 8 9 10 10 11 12 12 13 13 13 13 13 13 13 13 13 12 12 11 11 11 10 10 10 10 10 11 11 10 9 9 8 8
8 7 6 6 6 5 6 6 8 7 7 7 7 5 5 5 4 4 5 4 6 6 5 6 6 5 6 6 6 7 7 5 4 4 5 6 6 6 6 6 6 7 7 8 7 7 7 6 6 6 6 7 7 8 8 9 10 10 11 11 12 12 12 12 12 13 13 13 13 12 12 11 11 12 12 11 11 11 11 11 11 11 10 10 9 9
7 6 4 4 5 5 4 5 6 6 5 5 5 5 4 4 4 4 5 5 5 5 5 5 5 5 6 5 5 6 5 5 5 4 4 6 6 6 6 6 7 7 8 8 7 7 6 6 6 6 6 6 7 7 8 9 9 10 10 11 11 11 11 11 12 12 12 12 12 12 12 12 12 12 12 12 12 12 11 11 11 11 11 10 10 10
6 4 3 3 5 6 4 4 5 5 4 4 5 4 3 3 4 4 4 5 6 6 5 6 5 5 6 7 5 4 4 5 5 4 4 5 5 6 6 6 7 7 8 8 8 7 6 5 5 5 5 5 6 7 7 8 9 9 10 10 10 11 11 11 11 11 11 11 12 12 12 11 11 12 12 12 12 12 12 12 12 12 11 11 10 10
4 4 4 5 6 6 5 5 5 5 3 3 4 4 3 3 3 3 4 5 6 5 6 7 7 6 7 8 6 6 5 4 5 5 5 5 5 5 6 6 6 7 7 8 9 9 7 6 5 5 5 5 5 6 7 8 8 9 9 10 10 10 10 10 10 10 10 11 11 11 11 11 11 11 12 12 12 12 12 12 12 12 12 12 11 11
3 3 5 6 6 7 7 5 5 6 4 3 2 3 3 4 3 4 5 5 5 4 4 6 7 6 7 8 6 6 7 5 5 5 4 4 5 5 5 6 6 6 7 7 8 9 8 7 5 5 5 5 5 5 6 7 7 8 8 9 9 10 10 10 10 10 10 10 10 11 11 11 11 11 11 12 12 12 11 11 12 12 12 12 12 12
3 3 6 6 6 7 7 5 4 6 5 2 1 2 4 5 5 4 4 4 4 2 3 5 5 5 7 8 7 8 7 6 6 5 4 4 5 5 5 5 6 6 7 7 8 9 9 8 6 5 5 4 5 5 6 6 7 7 8 8 9 9 9 9 9 9 9 9 10 10 10 10 11 11 11 11 11 11 11 11 11 11 12 12 12 12
3 3 5 5 6 6 5 5 3 5 5 1 1 4 5 5 5 4 3 2 2 2 5 5 4 5 6 6 8 8 8 7 7 6 5 5 5 5 4 4 5 5 6 7 8 9 9 8 7 5 5 4 5 5 5 6 6 7 7 7 7 8 8 8 8 8 8 9 9 9 9 10 10 10 10 11 11 11 11 11 11 11 11 11 11 12
3 4 3 3 5 4 3 3 3 4 4 1 2 5 4 4 4 3 3 2 1 2 4 3 3 4 5 5 7 9 8 7 6 5 5 5 4 4 4 4 4 5 6 6 7 9 9 9 8 6 6 5 5 5 5 5 6 6 6 7 7 7 7 7 7 7 7 8 8 8 8 9 9 9 10 10 10 10 11 11 11 11 11 11 11 11
3 4 3 3 4 3 1 2 3 4 3 1 3 5 4 4 4 3 3 2 2 2 2 2 1 3 4 5 7 8 7 6 6 6 6 5 4 4 4 4 4 5 5 6 7 8 9 9 8 7 7 6 6 5 5 5 6 6 6 6 6 6 7 7 7 7 7 7 7 8 8 8 8 9 9 9 10 10 10 10 10 11 11 11 11 10
2 3 3 4 4 3 2 3 3 3 2 3 3 4 4 5 4 4 2 2 2 2 3 2 1 2 4 5 5 5 5 5 6 7 7 6 5 4 4 5 5 5 5 5 6 8 9 9 9 8 7 6 6 6 5 6 6 6 6 6 6 7 6 6 6 6 7 7 7 7 7 8 8 8 8 9 9 9 9 10 10 10 10 10 11 10
3 4 3 3 3 3 3 3 3 2 2 3 3 2 2 3 3 4 3 2 2 2 3 2 1 2 2 4 4 4 4 5 5 6 6 6 5 4 5 5 5 5 5 5 6 7 8 9 9 8 7 6 6 6 6 6 6 6 6 6 6 7 7 6 6 7 7 7 7 7 7 7 8 8 8 8 8 8 8 9 9 9 10 10 10 10
3 3 2 2 3 3 3 2 1 3 3 3 3 3 2 2 3 2 2 2 1 2 3 1 1 1 2 3 4 4 5 5 4 6 7 6 6 5 5 6 6 6 5 5 6 6 8 8 8 8 7 7 7 6 6 6 6 6 6 6 6 7 7 7 7 7 7 7 7 7 7 7 8 7 7 8 8 8 8 8 8 8 9 9 9 9
2 1 2 3 2 3 3 3 1 3 3 3 2 2 2 2 2 2 2 2 2 2 2 1 0 2 4 3 3 4 5 5 5 6 7 7 7 6 6 6 6 6 6 6 5 6 7 8 8 8 7 7 7 7 7 7 7 7 6 6 7 7 7 7 7 7 8 8 8 8 8 8 8 8 8 8 8 8 8 8 8 8 8 8 8 8
2 0 1 2 2 3 3 1 1 1 3 3 1 2 1 1 1 1 1 1 1 1 2 2 1 2 3 3 3 4 6 7 6 6 6 7 7 7 7 6 6 7 7 6 6 6 7 7 7 7 7 7 7 7 7 7 7 7 7 7 7 7 7 7 8 8 8 8 8 8 8 8 8 8 8 8 8 8 8 8 8 8 8 8 8 8
1 1 2 2 2 3 2 0 1 1 2 2 1 2 2 1 1 1 1 1 1 1 2 2 2 2 2 3 4 5 6 7 7 7 7 7 9 8 8 7 7 7 7 6 6 6 7 7 7 7 7 7 7 7 7 7 7 8 8 7 7 8 8 8 8 8 8 8 9 9 9 9 9 9 9 9 9 9 9 8 8 8 8 8 8 8
1 2 3 2 2 2 2 0 0 1 1 2 2 2 1 1 3 2 1 1 3 2 2 3 4 4 4 4 5 6 6 7 8 8 8 8 9 9 8 8 7 7 7 6 6 6 7 7 7 7 7 7 7 7 7 7 7 8 8 8 8 8 8 8 8 8 8 8 9 9 9 9 9 9 9 9 9 9 9 9 9 9 9 9 9 9
2 1 3 1 1 2 2 1 1 2 1 2 2 1 1 1 2 2 1 2 3 2 3 4 4 5 4 3 5 7 7 7 8 8 8 9 9 8 8 8 8 7 7 7 6 6 7 7 7 7 7 7 7 8 8 8 8 8 8 8 8 9 8 9 8 8 8 8 9 9 9 9 9 10 9 9 9 9 9 10 10 10 10 10 10 10
2 2 4 3 2 3 2 1 1 3 2 1 1 0 1 1 1 1 1 2 3 3 5 5 5 5 4 4 6 6 6 7 7 8 8 9 8 8 8 8 8 8 7 7 7 7 7 7 7 7 7 7 8 8 8 8 8 8 8 8 8 9 9 9 9 8 8 9 9 9 9 10 10 10 10 10 10 10 10 10 10 10 11 11 11 11
2 2 4 4 3 2 2 1 1 3 3 3 2 2 3 1 1 2 1 2 2 2 4 6 6 6 5 5 5 6 7 6 6 7 7 8 9 8 8 8 8 8 8 7 7 7 7 7 7 7 7 8 8 8 8 8 9 9 9 8 8 9 9 9 9 9 9 9 9 10 10 10 10 10 10 10 10 10 11 11 11 11 11 12 12 12
2 2 3 4 3 1 1 2 2 2 3 3 3 3 3 2 2 1 2 3 3 2 3 5 6 7 7 5 4 6 8 6 6 6 7 8 9 8 8 8 7 8 8 8 7 7 7 7 8 8 7 8 8 8 8 8 9 9 9 9 9 9 9 9 9 9 10 10 10 10 11 11 11 11 11 11 11 11 11 12 12 12 12 13 13 13
3 3 3 3 2 1 3 4 3 2 2 1 1 1 1 2 2 2 3 4 4 4 4 4 6 8 7 5 5 7 7 7 7 7 7 8 9 9 9 8 7 8 8 8 8 7 7 7 8 8 8 8 8 9 9 9 9 9 9 9 9 10 10 10 10 10 10 11 11 11 11 11 11 11 11 12 12 12 13 13 13 13 13 14 14 13
4 3 3 3 3 4 4 4 2 2 1 0 1 1 1 2 2 1 3 5 5 5 5 5 7 9 7 5 6 7 8 8 9 8 8 9 9 9 9 8 8 8 8 9 8 7 7 7 7 8 7 8 9 9 9 9 9 9 10 10 10 10 10 10 11 11 11 11 11 12 12 12 12 12 12 12 13 13 14 14 14 14 14 14 14 14
4 3 3 4 4 5 5 3 2 2 2 2 3 2 2 3 3 2 4 5 5 6 6 6 7 9 8 7 8 9 9 9 10 9 9 10 10 10 9 8 8 8 8 9 9 8 7 7 7 7 7 8 9 9 10 10 10 10 10 10 10 11 11 11 11 11 12 12 12 12 12 12 12 12 13 13 14 14 14 14 14 15 15 15 15 15
5 4 3 3 3 4 5 4 4 4 3 3 4 4 4 4 4 5 6 6 7 7 6 6 8 9 9 9 10 10 10 10 10 10 9 10 10 10 9 8 8 8 9 9 9 9 8 7 7 7 7 8 9 9 10 10 10 11 11 11 11 11 11 11 11 11 12 12 13 13 13 13 13 13 14 14 14 14 14 14 15 15 15 15 15 15
5 5 5 4 4 5 5 5 6 5 4 4 4 5 5 5 5 6 7 7 8 8 6 6 8 10 11 10 11 11 10 11 11 10 10 10 10 10 9 8 7 8 9 9 9 9 8 8 7 7 8 8 9 10 10 10 10 11 11 11 11 11 11 11 11 12 12 12 12 13 13 13 13 14 14 14 14 14 14 14 14 15 15 15 15 15
4 5 5 6 7 7 7 7 7 5 4 5 6 6 6 6 6 6 7 8 8 8 8 9 9 10 11 11 11 11 11 11 11 11 10 9 9 9 9 8 7 8 8 8 9 9 9 8 7 7 8 8 9 9 10 10 10 10 10 11 11 11 11 11 12 12 12 12 12 13 13 13 13 14 14 14 14 14 14 14 14 14 14 14 14 14
4 5 6 6 7 8 8 8 7 6 6 7 7 8 7 7 7 7 8 9 8 7 10 10 8 8 10 11 10 11 11 11 11 11 10 9 9 9 9 8 8 8 8 8 8 8 8 8 8 7 8 8 9 9 10 10 11 10 10 11 11 11 11 11 11 12 12 12 12 13 13 13 13 14 14 14 14 14 14 14 14 14 14 14 14 14
4 6 7 6 7 8 7 7 7 7 8 8 8 9 8 7 7 8 9 8 7 7 9 9 7 8 10 10 10 11 11 11 11 11 10 9 8 8 8 8 8 9 8 8 8 8 8 8 8 8 8 9 10 10 11 11 11 10 10 11 11 11 11 11 11 12 12 12 13 13 13 14 14 14 15 15 15 15 15 15 15 15 15 15 14 14
4 6 7 6 7 7 7 8 8 8 9 9 9 10 8 8 8 8 9 9 8 8 9 8 8 9 10 10 10 10 10 10 10 9 8 8 8 7 8 8 9 9 9 8 8 8 8 8 8 8 9 10 11 12 12 12 11 11 11 11 12 12 12 12 13 13 13 13 14 14 14 14 15 15 16 16 16 16 15 15 16 16 16 16 15 15
5 6 7 6 7 9 9 8 8 8 9 10 10 10 8 8 9 9 8 8 8 9 9 7 8 11 10 10 10 11 10 10 9 8 8 8 8 8 8 9 10 9 8 8 8 8 8 9 9 10 11 12 13 13 13 12 12 12 12 12 12 13 13 13 14 14 14 15 15 15 15 15 16 16 16 17 17 17 16 16 16 16 16 17 17 17
6 6 7 6 7 10 10 9 10 10 9 10 12 11 9 8 9 9 9 8 8 8 8 8 9 10 10 10 10 10 10 9 9 9 9 9 9 9 9 10 9 8 8 8 8 9 9 10 10 11 12 13 14 14 13 13 12 12 12 13 13 13 14 14 15 15 16 16 16 16 16 16 17 17 17 18 18 18 18 18 17 17 17 17 17 17
7 7 8 7 8 10 10 9 10 10 9 11 12 11 9 9 10 10 10 10 9 7 7 8 9 10 10 10 9 9 10 10 9 10 9 9 9 9 9 8 8 8 8 8 9 9 10 10 11 12 13 13 13 13 13 13 13 13 13 13 14 14 15 15 16 17 17 17 17 17 18 18 18 19 19 19 19 19 19 19 19 19 19 18 18 18
8 7 8 8 8 10 11 10 9 9 9 11 11 9 8 9 9 10 11 11 10 9 9 10 10 11 11 10 9 9 9 9 9 10 9 8 8 8 8 7 7 8 9 9 9 9 10 11 11 12 13 13 13 13 13 13 13 13 14 15 15 16 16 17 17 18 18 19 19 19 19 19 20 20 20 20 20 20 20 20 20 20 20 20 20 20
9 8 9 10 9 10 11 9 8 9 10 11 11 10 10 10 9 10 12 12 10 11 11 11 11 12 12 11 10 10 9 9 9 10 9 9 8 8 8 8 9 9 10 10 10 10 11 12 12 13 13 13 13 13 13 13 14 15 15 16 17 17 18 18 19 19 19 19 20 20 20 21 21 22 22 22 22 22 22 22 22 22 21 21 22 22
10 10 10 10 10 11 10 8 9 11 12 12 12 11 10 10 9 11 13 13 11 11 11 11 12 12 12 12 11 10 9 8 8 9 9 9 8 7 8 9 10 11 11 11 11 12 12 13 14 14 14 14 14 14 14 15 15 16 17 18 19 19 20 20 21 21 21 21 21 22 22 23 23 23 24 23 23 23 24 24 24 24 23 23 23 23
11 11 11 12 12 11 11 11 12 13 14 13 13 11 10 10 10 10 11 13 12 10 9 10 12 13 12 12 10 9 8 8 8 9 9 9 9 8 9 10 11 12 12 12 12 13 14 14 14 15 15 16 16 16 16 17 17 18 19 20 20 21 22 22 23 24 24 24 24 24 25 25 25 25 26 25 25 25 25 26 26 26 25 25 25 25
12 13 13 13 14 12 11 13 13 13 13 14 14 13 12 11 10 9 10 13 13 11 10 10 11 12 11 10 9 9 8 8 9 10 10 10 10 10 10 11 12 12 12 13 13 13 14 14 15 15 16 17 17 18 19 19 19 20 21 21 22 23 24 25 26 27 27 28 28 28 28 28 28 28 28 28 28 28 28 28 28 28 27 27 27 27
13 14 14 14 15 14 13 14 14 13 14 15 15 15 14 12 11 9 10 13 13 11 11 11 11 12 11 9 9 8 7 8 10 11 11 11 11 11 11 12 12 12 12 12 13 13 14 14 15 15 16 17 18 19 20 20 20 21 22 23 23 24 25 26 27 28 29 29 30 31 31 31 31 31 31 31 30 30 30 30 30 30 30 30 29 29
15 15 15 15 17 16 16 16 16 16 15 15 16 15 15 13 10 9 11 13 13 11 11 11 11 11 10 9 9 8 8 10 11 12 11 11 12 12 11 12 12 12 12 13 13 14 14 15 15 16 17 18 19 20 20 21 22 22 23 24 25 25 27 27 28 29 30 31 31 31 32 32 32 33 33 33 33 32 32 32 32 32 32 32 31 31
17 17 17 17 17 17 17 18 18 18 17 17 16 15 14 12 11 10 12 14 13 11 11 11 11 11 10 10 10 11 12 12 11 11 11 11 11 11 12 12 12 12 13 13 14 15 15 16 17 18 19 20 20 21 22 23 23 24 25 26 27 28 29 29 30 31 32 32 33 33 34 34 34 34 34 34 34 34 33 33 33 33 33 33 32 33
18 18 18 18 18 17 18 18 18 18 18 16 15 14 14 13 13 14 14 14 13 12 12 12 12 12 11 11 12 12 12 11 11 10 11 11 11 12 13 13 13 13 14 15 15 16 17 18 19 19 20 21 22 23 24 25 25 26 27 28 29 30 31 32 32 33 34 34 35 35 36 36 35 35 35 34 34 34 34 34 33 33 33 33 33 33
19 19 19 19 18 17 17 17 17 17 17 15 13 14 15 15 16 16 15 14 14 14 13 13 14 13 12 13 13 12 11 11 11 11 12 13 13 14 14 14 14 15 16 17 18 19 19 20 21 22 22 23 24 25 26 27 28 29 30 31 31 32 33 34 34 35 36 36 36 37 37 37 36 35 35 34 34 34 34 34 33 33 33 33 33 33
20 20 20 20 19 17 17 18 18 18 18 16 15 15 16 17 17 17 15 16 16 15 15 15 15 14 14 14 13 13 12 12 12 13 13 14 15 15 16 16 16 17 18 18 19 20 21 22 23 23 24 25 26 27 28 28 29 30 31 32 33 34 35 36 37 38 38 38 38 38 37 37 36 35 34 34 34 34 34 34 34 33 33 33 33 33
22 21 21 21 20 19 19 20 20 19 19 18 18 19 19 19 19 18 18 18 17 17 16 16 15 15 15 14 14 13 14 14 14 15 15 15 16 17 17 17 18 19 20 20 21 22 22 23 24 25 26 27 28 28 29 30 31 32 33 35 36 37 39 40 41 41 41 41 40 38 38 37 36 35 34 34 34 34 35 34 34 34 33 33 33 33
21 20 20 20 21 21 21 21 21 20 20 19 20 21 21 21 20 19 19 19 18 18 17 17 16 16 16 16 15 15 15 16 16 17 17 17 18 19 19 19 20 21 21 22 23 24 24 25 26 27 28 29 29 30 30 31 32 33 35 36 37 38 40 41 42 42 41 40 38 37 36 36 35 34 33 33 33 33 33 32 32 33 33 33 32 32
20 19 19 20 20 20 21 21 21 21 21 20 20 21 21 21 21 20 20 20 19 18 18 18 17 17 17 17 17 17 17 17 18 18 19 19 20 21 21 21 22 23 23 24 24 25 26 27 27 28 28 29 30 30 31 32 32 33 35 36 37 38 39 39 39 39 38 36 35 34 34 33 33 32 32 31 31 30 30 30 30 30 30 30 30 30
20 19 19 20 20 20 21 22 22 21 21 20 20 20 20 21 21 21 21 20 19 19 19 18 18 18 18 18 18 18 19 20 20 20 21 21 22 22 23 23 23 24 24 25 26 26 27 28 28 28 29 30 31 31 32 33 33 34 35 36 37 38 38 37 36 35 33 32 31 31 31 31 31 31 31 30 30 29 29 29 29 29 29 29 30 30
21 21 20 20 20 21 21 21 21 20 20 20 20 20 21 21 21 21 20 20 19 19 19 19 19 19 19 20 20 20 20 21 22 22 22 23 24 24 24 24 24 25 26 26 27 28 28 28 29 29 30 31 32 33 33 34 34 35 35 37 38 38 37 35 34 33 31 30 30 30 30 30 30 30 30 30 30 30 30 29 29 29 30 29 29 30
22 23 22 21 21 22 22 22 21 21 22 23 23 22 22 22 22 21 21 21 21 21 21 20 21 21 21 22 22 22 23 24 25 25 25 25 26 25 25 26 26 26 27 28 28 28 29 29 30 31 31 32 33 34 34 35 35 36 37 38 37 37 35 35 34 33 32 31 31 31 31 31 31 31 31 31 31 31 31 31 30 31 31 30 30 31
24 25 24 23 24 25 25 25 24 23 24 25 25 25 25 24 24 24 24 23 24 24 24 23 23 23 24 24 25 25 25 26 26 26 26 26 26 26 27 27 27 27 28 28 29 29 30 30 31 31 32 33 34 35 36 37 38 38 38 37 36 35 35 34 33 33 32 33 33 33 33 33 33 33 33 32 32 32 32 32 32 32 31 30 31 31
Wind_Direction
96 92 96 109 117 118 118 118 115 107 101 98 94 91 94 90 78 76 71 73 86 76 66 76 64 47 44 42 52 64 63 55 44 39 38 38 38 36 37 37 36 32 26 25 23 21 23 25 30 30 29 31 30 30 32 33 31 31 32 32 32 34 36 37 38 39 39 39 40 41 41 38 34 31 28 26 23 21 20 19 18 17 16 13 10 7
92 94 108 126 131 127 121 118 115 108 99 94 92 85 79 82 76 64 63 75 87 72 59 70 60 42 42 36 47 69 66 51 47 42 33 33 36 36 36 34 34 33 30 28 24 24 26 27 31 32 31 31 30 30 32 32 31 31 32 32 31 32 35 37 38 39 38 38 39 39 40 37 35 34 32 31 29 26 23 21 20 19 18 17 15 13
84 96 127 141 129 121 114 112 111 109 107 98 91 85 70 75 80 55 51 69 82 66 51 67 64 40 35 30 42 72 71 47 44 45 32 31 33 33 35 33 30 29 28 28 26 25 25 26 29 28 28 27 27 29 30 30 30 29 29 29 30 32 33 35 37 38 38 37 38 38 37 36 34 33 32 33 33 31 28 25 23 22 21 19 18 17
92 109 129 123 124 125 109 96 102 103 112 109 99 94 75 77 82 63 54 65 70 62 60 69 58 33 30 29 32 52 59 43 40 39 31 33 31 27 32 32 28 27 25 24 24 26 26 24 24 21 20 21 23 27 27 27 28 27 27 27 29 30 31 33 34 36 36 36 36 36 36 35 33 31 31 31 32 33 32 30 27 26 25 23 21 20
114 120 98 88 107 119 103 91 105 113 115 105 110 113 92 87 85 76 75 70 61 53 61 64 46 28 31 30 26 32 39 38 38 36 27 26 25 24 26 26 27 26 24 22 20 24 27 21 15 13 13 15 18 19 21 24 25 25 25 25 25 26 28 29 29 31 33 33 33 32 32 31 31 30 29 29 29 30 29 29 29 28 28 27 25 24
126 107 85 81 90 100 101 100 115 126 117 76 103 143 116 96 85 84 86 73 64 48 48 61 48 30 30 31 26 27 30 29 34 36 19 11 18 22 20 19 22 22 22 21 18 20 24 20 16 12 10 9 7 8 13 18 21 21 22 22 21 22 23 23 24 27 28 29 29 28 27 27 27 27 27 27 28 29 28 27 27 26 26 28 28 27
134 90 84 94 95 93 90 86 109 123 115 85 87 132 111 93 91 104 106 77 74 57 34 61 64 33 22 27 28 25 21 15 20 24 9 3 9 14 15 15 17 17 18 19 16 18 21 22 21 14 8 5 0 1 7 11 14 15 17 18 18 18 18 18 19 21 23 24 24 24 23 23 24 23 24 26 28 29 28 26 25 24 23 24 25 26
139 89 78 91 91 87 78 71 97 110 104 121 98 97 104 100 103 124 126 82 73 56 32 42 63 38 16 20 27 28 25 15 14 14 7 2 355 357 4 7 12 13 13 15 13 16 19 21 20 14 8 2 359 2 4 3 5 7 10 11 12 13 13 13 14 15 16 17 17 17 17 18 19 19 19 21 24 26 26 24 23 22 21 20 20 22
120 111 103 98 78 78 80 69 102 97 82 156 110 89 93 96 98 113 107 68 38 51 26 4 44 37 4 5 22 30 32 21 16 16 10 2 349 346 351 353 0 5 9 11 9 11 15 15 12 9 7 2 359 1 0 358 358 359 1 1 2 4 5 6 7 7 8 9 9 9 10 11 13 13 15 16 18 21 22 20 19 20 20 18 17 18
109 131 140 115 83 78 74 55 107 104 68 84 93 69 46 37 45 56 75 76 43 38 354 310 73 46 355 357 17 28 29 19 18 22 17 6 350 344 344 343 348 354 360 4 3 6 9 8 6 5 3 360 358 357 355 353 353 353 352 351 351 353 356 357 358 359 359 0 1 1 1 2 3 6 9 10 12 14 17 15 14 15 17 15 14 16
104 130 132 108 91 89 71 65 108 113 65 80 71 45 34 23 27 38 42 78 56 7 327 305 159 89 5 357 14 23 21 23 26 21 16 10 356 344 341 341 343 345 349 354 355 359 3 3 3 3 -0 356 355 354 350 346 346 347 347 346 345 346 348 349 349 349 350 351 351 351 352 352 354 357 359 2 4 6 10 10 9 9 11 11 11 13
78 100 115 97 77 69 58 73 107 81 62 81 51 42 57 20 23 33 15 48 59 348 333 335 121 108 358 340 357 359 356 13 23 14 7 5 351 337 339 342 342 341 342 346 348 352 357 358 359 0 357 353 352 349 345 342 341 341 343 343 341 341 343 343 343 342 342 342 341 341 343 344 346 349 350 353 355 357 1 4 4 4 5 6 6 8
90 108 97 61 58 49 45 50 33 19 34 51 37 45 57 17 17 13 353 18 4 325 348 13 94 71 301 310 340 341 339 349 358 357 355 354 344 333 337 341 342 342 339 340 343 347 350 350 353 354 351 350 349 346 344 342 339 338 338 339 337 337 341 340 339 338 337 336 335 335 335 336 339 340 341 343 346 348 352 355 356 356 358 360 360 1
97 61 13 32 30 21 46 57 7 355 11 23 37 45 40 41 34 332 315 356 355 341 0 352 67 346 324 328 341 333 334 337 340 345 347 348 344 339 338 340 342 340 337 338 340 342 343 343 346 348 347 349 349 347 347 345 342 339 337 336 335 335 339 338 337 336 335 333 333 331 329 330 332 332 332 334 336 339 342 345 347 347 350 353 353 353
121 349 346 10 355 1 29 83 133 66 23 17 51 63 54 93 80 276 279 5 5 355 2 347 348 353 342 343 332 322 332 344 353 352 348 347 347 346 345 343 343 339 338 339 338 338 339 338 340 342 343 346 347 347 348 348 346 343 340 338 335 335 337 336 335 335 334 333 332 330 327 327 328 328 328 328 329 331 333 335 338 338 340 342 344 346
131 229 272 320 328 5 19 240 156 66 15 343 2 33 23 65 94 89 129 103 51 20 9 348 327 319 322 324 324 330 343 357 4 359 354 351 349 351 348 343 343 341 339 337 332 334 336 334 334 336 338 340 341 342 344 346 347 346 345 342 338 336 337 335 334 333 333 333 332 330 328 327 327 327 327 327 328 328 330 330 331 332 333 333 334 337
177 254 283 332 347 13 29 322 328 22 342 333 0 4 328 80 95 95 84 33 45 39 356 342 329 324 335 327 320 336 349 355 357 353 349 349 350 349 341 337 340 339 338 332 326 330 331 329 329 329 331 333 333 335 339 341 342 343 343 343 341 339 338 337 336 337 337 335 333 331 330 328 327 326 326 327 327 327 327 327 328 329 329 328 327 329
185 234 279 326 357 332 4 41 12 20 14 352 357 299 296 30 67 94 62 7 18 2 323 336 331 320 335 331 321 332 336 335 341 343 340 341 346 344 335 332 333 334 335 329 323 327 328 326 325 324 324 325 327 331 334 336 337 337 337 338 340 339 339 339 339 340 340 338 337 335 332 330 328 326 326 326 326 325 324 323 324 324 323 323 323 323
186 222 275 279 259 295 337 56 348 344 357 12 29 313 360 10 327 342 10 342 343 333 320 325 323 312 303 304 314 318 311 315 326 333 333 331 332 334 332 330 329 330 332 327 322 324 325 325 324 322 320 321 324 327 330 333 333 333 333 334 336 337 338 339 339 338 338 338 339 338 335 334 331 329 327 326 325 324 322 321 321 320 318 319 320 320
216 216 265 271 262 289 333 28 326 321 329 344 359 337 338 0 321 327 341 319 322 328 317 321 329 318 296 293 302 299 298 308 319 324 325 319 319 326 331 331 329 327 326 325 323 322 322 323 322 322 321 321 323 325 327 328 327 328 330 330 331 332 332 333 333 333 333 333 335 335 335 334 332 331 329 328 327 325 323 322 320 318 316 316 318 317
254 230 249 271 285 291 272 279 285 286 307 325 338 328 325 335 329 325 342 336 330 319 310 320 322 308 299 303 297 292 299 309 312 315 316 311 313 321 325 326 325 322 323 326 325 322 321 320 319 320 321 322 324 325 325 325 323 325 327 326 325 325 325 326 326 327 327 328 329 329 329 330 329 329 328 328 328 327 325 323 320 318 317 315 314 313
260 240 233 260 285 255 249 267 267 255 269 296 308 302 302 313 318 336 334 323 323 322 309 312 313 304 301 306 298 298 305 308 306 308 310 306 307 315 320 320 319 318 322 327 328 325 320 318 318 319 320 321 323 323 324 325 323 323 323 324 323 322 321 321 321 322 322 323 323 322 323 325 325 324 324 324 324 324 324 322 320 319 317 315 313 312
257 243 235 246 246 242 261 280 278 264 263 295 320 312 311 331 348 357 321 311 319 323 314 316 317 307 301 301 302 304 304 303 303 302 301 300 302 312 318 318 317 318 321 327 331 328 320 317 319 320 320 321 322 323 324 324 324 322 322 322 322 320 320 320 320 321 320 319 318 318 319 320 320 319 319 319 319 318 319 319 318 318 317 316 315 313
268 254 236 247 257 265 281 295 297 303 321 325 322 324 319 326 334 323 307 310 315 309 308 320 316 305 302 306 308 308 305 304 305 302 299 298 302 310 315 315 314 315 319 326 330 329 322 318 319 321 321 322 323 323 323 323 324 324 323 322 321 319 319 320 320 320 319 318 316 316 316 316 317 316 315 315 315 315 315 315 315 315 315 316 316 314
263 255 228 230 262 278 290 299 297 298 301 291 299 311 314 323 333 320 312 320 317 302 300 312 306 299 302 309 313 314 314 310 308 306 303 299 301 306 311 313 312 313 317 321 326 327 324 320 319 320 321 323 323 322 322 323 324 325 325 324 322 320 320 321 322 321 320 319 318 317 316 315 316 315 314 314 315 316 317 316 315 314 313 313 314 314
255 251 232 220 231 245 257 269 269 268 278 286 289 296 302 310 315 308 309 317 312 303 302 301 299 302 306 310 313 315 316 314 312 312 307 299 299 303 307 309 310 312 314 315 319 323 323 322 322 320 321 323 323 323 324 324 325 326 327 326 324 322 321 322 323 324 323 321 321 320 318 316 316 316 315 315 316 317 318 319 318 317 315 313 312 312
257 256 244 229 230 236 241 251 254 254 267 281 285 289 294 300 307 312 315 312 304 305 306 297 297 307 307 306 309 310 310 308 308 311 307 297 295 299 303 307 309 311 312 312 315 318 319 320 319 318 320 321 323 325 326 326 327 329 330 330 330 327 325 324 325 325 325 323 322 322 320 319 318 317 317 317 316 316 316 317 318 317 317 315 314 312
259 261 252 238 245 246 243 252 264 265 265 268 275 284 288 292 301 311 310 305 306 315 309 300 302 309 303 300 300 301 304 304 303 307 306 297 293 296 300 306 308 306 306 308 309 311 313 316 317 318 318 319 323 325 326 327 327 329 332 334 335 333 330 328 327 326 326 325 323 322 322 322 320 319 318 318 318 316 314 314 314 315 315 315 314 313
254 257 250 247 263 262 255 263 269 267 270 274 274 277 280 280 285 294 296 296 303 305 299 298 301 302 301 303 301 299 302 304 305 307 307 301 296 297 301 304 302 300 299 299 300 303 308 312 316 318 316 317 320 320 321 322 323 325 328 331 334 334 333 331 328 327 327 326 325 325 325 325 324 322 321 320 319 317 314 313 312 313 313 312 312 312
258 260 257 255 266 268 269 273 272 270 276 283 282 280 277 272 276 289 296 296 299 299 297 299 300 298 299 300 301 305 308 307 308 310 308 304 301 300 301 302 301 301 297 291 292 299 305 308 311 313 312 313 313 314 315 316 316 318 321 324 327 329 329 329 327 326 325 324 324 325 326 326 325 323 322 321 321 319 316 314 312 311 310 309 309 309
264 263 265 262 263 268 273 279 281 280 277 279 287 289 283 278 282 291 299 299 302 302 303 307 307 303 303 301 301 309 315 314 312 311 308 304 304 305 304 304 306 306 301 294 292 298 302 305 306 307 307 307 307 309 309 309 311 314 315 317 320 322 324 324 323 322 322 321 321 322 322 322 322 321 320 320 320 319 317 315 312 310 308 306 306 305
265 264 270 270 266 266 273 281 285 287 286 286 289 286 277 275 280 286 292 294 294 297 302 309 308 301 304 310 311 312 317 317 312 310 309 306 304 303 302 303 308 309 308 303 300 300 301 302 304 304 304 304 305 306 305 305 307 309 310 312 315 318 320 319 319 319 318 317 318 317 317 317 318 318 318 317 317 316 315 313 311 309 307 305 303 302
259 260 265 264 264 269 277 284 284 289 295 290 284 275 267 272 280 286 292 290 287 294 300 299 296 295 304 315 315 311 313 313 308 311 314 312 308 304 299 301 307 310 312 310 305 303 303 303 304 303 302 303 305 305 305 305 306 306 307 310 313 314 316 315 316 316 315 315 314 312 312 312 313 313 313 313 312 312 311 310 308 307 306 304 303 301
260 260 263 262 265 272 279 286 289 291 287 280 278 271 266 272 275 279 286 284 281 289 295 294 295 298 302 305 300 297 300 304 307 312 313 311 311 309 303 300 303 308 310 307 304 304 305 305 304 302 302 303 305 306 306 306 305 305 306 307 309 311 312 312 312 313 313 313 311 309 309 308 308 309 309 309 308 308 307 305 304 303 303 302 302 300
258 262 264 265 267 272 279 289 290 281 272 275 283 280 273 274 273 275 285 286 278 279 288 293 294 294 295 294 292 292 295 300 308 313 312 309 306 308 307 302 303 308 308 306 305 305 305 307 307 306 306 306 307 308 307 307 306 305 305 306 307 308 309 309 309 309 311 311 309 308 307 306 306 305 305 305 305 304 303 302 301 300 299 299 299 298
250 256 262 265 267 270 275 276 272 272 276 283 289 285 280 284 285 285 292 291 278 271 278 285 288 292 294 295 296 296 296 301 308 312 314 313 308 306 308 306 306 309 307 305 305 305 306 309 310 310 309 309 311 311 309 308 308 307 306 306 307 306 306 306 306 306 307 308 308 307 307 306 305 304 303 303 302 301 300 299 298 298 297 297 296 296
249 254 261 264 265 266 267 267 271 280 285 286 285 280 278 283 284 283 288 289 282 273 274 281 288 292 293 295 298 300 302 310 315 313 314 317 312 307 306 307 308 307 305 304 304 304 306 308 310 310 311 311 312 311 309 309 309 309 308 307 306 306 306 305 305 305 306 306 306 306 306 305 303 302 301 301 299 298 298 298 297 297 296 295 294 294
256 257 257 260 264 265 265 270 276 279 279 278 277 277 280 283 281 280 287 292 287 277 269 274 284 286 286 289 294 300 308 312 308 306 309 314 313 311 309 310 310 308 308 309 310 310 310 310 310 311 312 312 313 311 310 309 309 309 309 308 306 306 305 305 305 305 305 305 305 305 304 303 302 301 300 299 297 296 296 296 296 295 294 293 293 293
264 265 262 261 264 263 260 263 266 267 271 273 273 279 285 282 277 287 297 296 291 278 267 271 279 278 276 279 284 294 306 303 296 297 302 305 308 310 310 310 311 311 311 312 312 314 315 314 314 315 315 315 314 313 312 311 310 310 310 309 308 307 306 306 306 306 306 305 304 304 303 301 300 299 298 297 296 295 295 295 294 294 293 292 292 292
264 267 266 262 261 261 258 260 264 266 271 273 273 278 282 278 280 296 297 291 290 283 272 270 272 271 270 274 279 285 293 293 290 292 295 298 303 307 308 309 309 310 312 312 312 312 314 315 316 317 317 316 314 313 313 312 312 311 310 309 308 307 307 306 306 306 306 305 305 304 302 301 299 297 296 296 295 294 294 294 294 293 292 291 290 290
261 264 264 261 260 260 257 260 266 268 269 271 271 272 273 275 281 284 280 281 284 281 275 271 268 268 270 272 274 279 284 287 287 289 294 299 303 306 308 308 306 307 309 309 310 310 312 314 315 315 314 313 312 311 311 310 311 310 309 309 308 307 306 305 305 305 305 304 304 303 302 301 298 296 295 294 294 293 292 292 292 292 291 290 289 289
259 261 263 261 261 262 259 261 267 270 269 267 267 268 269 270 272 273 276 282 280 273 272 272 270 271 272 271 273 278 281 283 286 289 293 296 298 303 306 306 305 305 305 305 307 308 310 311 313 313 312 312 311 310 309 308 308 308 308 308 307 306 306 305 304 304 304 304 303 302 301 300 298 297 295 294 293 291 291 292 292 291 291 290 289 288
255 257 260 260 260 263 263 262 265 269 269 264 263 269 270 268 271 275 278 279 278 273 272 273 273 273 271 271 274 277 278 281 285 288 290 292 295 300 303 303 304 304 304 304 305 306 307 309 310 310 310 310 310 309 308 307 307 307 307 307 306 306 305 305 304 303 303 302 302 302 301 300 299 297 296 294 292 291 291 291 292 291 291 290 289 288
255 254 258 260 260 260 260 260 262 266 268 265 263 266 267 268 274 278 276 275 276 275 273 274 275 273 271 271 272 273 275 278 281 284 288 292 295 300 301 301 302 302 302 303 303 303 304 306 307 308 308 309 309 309 308 308 307 307 307 307 307 306 306 305 304 304 303 302 301 301 301 301 299 297 295 294 292 291 291 291 291 291 290 289 289 288
256 255 256 259 260 259 259 261 265 268 269 267 265 266 269 273 275 275 274 274 274 272 272 274 274 272 272 272 271 272 275 277 280 284 287 289 294 298 299 299 300 300 301 301 301 302 303 304 305 307 308 308 309 309 309 309 309 309 309 309 308 308 307 306 305 304 303 302 302 301 301 301 300 298 296 294 293 292 291 291 290 291 290 290 289 288
259 258 257 259 261 262 263 264 267 270 270 269 268 267 269 273 275 273 272 273 272 270 271 273 272 272 271 270 270 273 275 277 281 284 286 289 294 297 297 298 299 300 300 300 301 302 303 304 306 307 308 309 309 309 310 310 310 310 310 310 310 310 309 308 306 305 303 301 300 300 301 302 301 300 298 297 296 294 293 292 291 291 291 291 289 288
260 259 259 261 262 263 264 266 268 269 270 271 272 272 271 272 273 271 270 271 273 272 272 272 273 273 271 270 270 272 275 277 281 283 285 289 292 294 295 297 298 298 299 299 300 301 303 304 306 307 308 309 309 309 310 310 310 310 309 310 311 312 312 311 310 308 306 303 301 301 302 303 303 302 300 299 298 297 296 294 294 293 294 293 292 290
259 260 261 261 262 262 263 266 270 270 270 271 273 274 274 274 273 272 271 272 274 274 274 275 275 274 273 272 272 273 276 279 281 282 284 287 290 292 293 294 295 296 298 299 300 302 303 304 305 306 307 308 308 308 309 309 308 308 308 309 311 312 313 314 313 312 311 308 306 304 304 304 305 304 302 300 299 298 297 297 296 296 296 296 296 294
258 261 261 260 264 265 264 268 273 272 272 273 275 275 275 274 273 273 273 273 274 274 275 277 278 277 276 275 276 277 278 279 281 283 285 286 289 290 291 292 294 296 298 299 301 302 303 304 305 305 306 307 307 307 307 307 307 308 308 310 311 312 313 313 313 313 313 311 309 308 307 306 305 305 304 302 300 299 298 297 298 298 298 298 298 297
257 260 260 261 265 265 263 266 269 268 268 271 276 278 276 273 272 273 272 272 273 272 273 275 277 278 278 276 277 278 279 280 282 284 285 286 288 289 291 293 295 296 298 299 300 302 303 304 304 305 305 305 306 306 306 307 308 308 309 310 310 311 311 312 312 312 312 311 310 309 308 307 306 305 305 304 302 300 299 297 297 298 298 297 297 297
255 256 257 259 260 261 262 264 265 266 267 269 273 277 276 274 271 271 272 273 273 273 274 275 276 277 278 278 279 279 280 281 282 282 285 287 289 290 291 293 295 296 297 298 300 301 302 303 303 304 304 304 305 306 307 308 308 309 309 309 310 310 311 311 311 311 311 310 309 308 307 306 306 305 304 303 302 301 300 298 298 298 297 295 295 295